Regional Weather Roundup
Issued by NWS

Home | Current Version | Previous Version | Graphics & Text | Print | Product List | Glossary On
Versions: 1 2 3 4 5 6 7 8 9 10 11 12 13 14 15 16 17 18 19 20 21 22 23 24 25 26 27
000
ASUS45 KBOU 241807
RWRCO

WEATHER ROUNDUP FOR COLORADO
NATIONAL WEATHER SERVICE DENVER/BOULDER CO
1100 AM MST FRI FEB 24 2017

NOTE: "FAIR" INDICATES FEW OR NO CLOUDS BELOW 12000 FEET WITH NO
SIGNIFICANT WEATHER AND/OR OBSTRUCTIONS TO VISIBILITY.

COZ001>005-013-030-031-241900-
...NORTHWEST COLORADO...

CITY           SKY/WX    TMP DP  RH WIND       PRES   REMARKS
CRAIG          LGT SNOW  19  11  70 W8        29.93R WCI   9
HAYDEN         PTSUNNY   18   9  68 W9        29.91R WCI   6
MEEKER         LGT SNOW  22  17  81 CALM      29.91R
MOUNT WERNER   NOT AVBL
STEAMBOAT SPGS CLOUDY    17  10  74 CALM      29.88R
WALDEN         NOT AVBL
$$

COZ006>008-011-241900-
...WEST CENTRAL VALLEYS...

CITY           SKY/WX    TMP DP  RH WIND       PRES   REMARKS
GRAND JUNCTION FAIR      34   9  35 W12       29.95S WCI  25
MONTROSE       CLOUDY    27  18  69 SW9       29.96R WCI  18
EAGLE          MOSUNNY   27  10  50 W15G25    29.88S WCI  15
RIFLE          CLOUDY    32  18  56 W15       29.91S WCI  22
DELTA          CLOUDY    36   8  31 W16       29.93S
NUCLA          CLOUDY    30  18  59 W13       29.98R WCI  20
$$

COZ017>023-064>068-241900-
...SOUTHWEST COLORADO...

CITY           SKY/WX    TMP DP  RH WIND       PRES   REMARKS
DURANGO        FLURRIES  24  12  60 NW17      29.91R WCI  11
CORTEZ         FAIR      33  12  41 W15G21    29.94S WCI  23
PAGOSA SPRINGS LGT SNOW  23  11  60 W17       29.88S WCI   9
TELLURIDE      CLOUDY    17   7  66 SE3       29.83S
WOLF CREEK PAS SNOW       1   0  92 S13G23    29.77S VSB 1/4 WCI -16
$$

COZ009-010-012-014-032>034-037-058>063-241900-
...CENTRAL COLORADO...

CITY           SKY/WX    TMP DP  RH WIND       PRES   REMARKS
ASPEN          PTSUNNY   21   9  59 N9        29.81S WCI  11
BUENA VISTA    PTSUNNY   27  -5  24 W16G23    29.77F WCI  15
COPPER MTN     LGT SNOW   5   0  78 MISG      29.66R
BERTHOUD PASS  SNOW      -2 -13  60 N3G22     29.62R VSB 1/4
COTTONWOOD PAS FAIR      19  -8  30 SW20G38   29.72R WCI   4
GUNNISON       FAIR      11   4  73 CALM      29.87R
KREMMLING      CLOUDY    28  10  47 N6        29.84R WCI  22
LEADVILLE      PTSUNNY   12  -7  42 NW9G17    29.72S WCI   0
MONARCH PASS   CLOUDY     3   0  85 W14G20    29.79R WCI -15
SALIDA         FAIR      30  -2  25 W14G28    29.87S WCI  19
SUNLIGHT       NOT AVBL
WILKERSON PASS CLOUDY    10   0  61 SW8       29.70S WCI  -1
$$

COZ069>075-241900-
...SAN LUIS VALLEY/SANGRE DE CRISTO MOUNTAINS...

CITY           SKY/WX    TMP DP  RH WIND       PRES   REMARKS
ALAMOSA        CLOUDY    26   2  35 W8        29.83S WCI  18
LA VETA PASS   LGT SNOW  16   5  62 SW12G21   29.76R WCI   3
SAGUACHE       FAIR      30   3  31 W17       29.81F WCI  18
$$

COZ035-036-038>040-241900-
...NORTHERN COLORADO FRONT RANGE...

CITY           SKY/WX    TMP DP  RH WIND       PRES   REMARKS
DENVER INTL AP LGT SNOW  20  15  81 NE8       29.95R VSB 3/4 WCI  10
DMNS CITY PARK   N/A     22  12  65 MISG      29.96S
AURORA         FLURRIES  20  14  76 NE3       29.94S
FRONT RANGE AP NOT AVBL
ERIE MUNI ARPT FLURRIES  24  15  68 CALM      29.97R
BOULDER MUN AP PTSUNNY   27  16  63 NE5       29.95S WCI  21
CENTENNIAL     LGT SNOW  21  14  74 VRB3      29.92S FOG
BROOMFIELD     PTSUNNY   21  16  79 CALM      29.94S
FORT COLLINS   FAIR      27  17  66 E8        29.98S HAZE    WCI  19
LONGMONT       CLOUDY    28  15  57 CALM      29.99S
$$

COZ041-046-047-076>085-087-088-241900-
...PIKES PEAK/PALMER DIVIDE AND SOUTHERN FOOTHILLS...

CITY           SKY/WX    TMP DP  RH WIND       PRES   REMARKS
COLO. SPRINGS  PTSUNNY   25   5  42 N7        29.90R WCI  17
A. F. ACADEMY  CLOUDY    20   7  56 NW5       29.87S WCI  13
SCHRIEVER AFB  CLOUDY    21   9  58 N9        29.91R WCI  11
ELLICOTT       CLOUDY   N/A N/A N/A N12       29.89R
FALCON         CLOUDY    19   9  64 N5        29.88R WCI  12
FORT CARSON    PTSUNNY   25   7  45 NE5       29.90S WCI  19
LIMON          CLOUDY    21  15  78 N10       29.94S WCI  10
MONUMENT HILL  FLURRIES  14  12  92 NW7       29.88R WCI   4
TRINIDAD       PTSUNNY   24  12  60 CALM      29.92S
$$

COZ042>045-048>051-090-091-241900-
...NORTHEAST COLORADO...

CITY           SKY/WX    TMP DP  RH WIND       PRES   REMARKS
GREELEY ARPT   FLURRIES  23  17  78 NE7       30.01R WCI  15
AKRON          LGT SNOW  22  17  81 NE8       29.98R WCI  12
BURLINGTON     CLOUDY    26  19  74 N13       29.97S WCI  15
WRAY           NOT AVBL
STERLING       CLOUDY    23  19  86 NE7       30.01R WCI  15
HOLYOKE        PTSUNNY   30  23  74 N9        30.01S WCI  22
FORT MORGAN    LGT SNOW  24  18  77 N5        30.01R WCI  19
$$

COZ086-089-092>099-241900-
...SOUTHEAST COLORADO...

CITY           SKY/WX    TMP DP  RH WIND       PRES   REMARKS
PUEBLO         CLOUDY    29  13  51 VRB5      29.96S WCI  24
LA JUNTA       CLOUDY    32  12  43 N13G18    29.98S WCI  22
LAMAR          PTSUNNY   32  14  47 N16       29.97F WCI  21
SPRINGFIELD      N/A     33  14  45 NW15G24   29.94S WCI  23
$$




USA.gov is the U.S. government's official web portal to all federal, state and local government web resources and services.